Cloud_Cover
100 100 24 100 36 36 77 100 100 99 100 91 100 100 100 100 100 100 100 100 100 100 100 100 100 100 100 100 100 100 100 100 70 63 92 90 100 100 100 96 96 95 96
96 99 50 100 37 61 79 100 100 100 100 100 99 100 100 100 100 100 100 100 100 100 100 100 100 100 100 100 100 100 100 88 100 100 100 84 85 88 100 100 100 100 100
100 65 59 45 41 45 86 100 100 100 100 100 100 100 96 100 100 100 100 100 100 100 100 100 100 100 100 100 100 100 100 100 100 100 70 96 100 100 100 100 100 100 100
98 68 41 56 96 68 88 100 100 100 100 100 100 100 100 91 100 100 100 100 100 100 100 100 100 100 100 100 100 100 100 100 100 97 85 100 99 100 100 100 100 100 100
97 51 100 7 100 94 100 100 99 100 100 100 100 100 100 73 100 100 100 100 100 100 100 100 100 100 100 100 100 100 100 100 100 100 85 100 99 100 100 100 100 100 100
98 63 97 100 100 99 100 65 100 100 100 100 100 100 100 100 90 98 100 100 100 100 100 100 100 100 100 100 100 100 100 100 100 100 100 100 100 100 100 100 100 100 100
31 60 100 100 100 100 100 100 100 100 100 100 100 100 100 100 100 100 92 100 100 100 100 100 100 100 100 100 100 100 100 100 100 100 100 100 100 100 100 100 100 100 100
24 85 100 100 74 100 100 100 100 100 100 78 70 100 100 98 93 100 99 100 100 100 100 100 100 100 100 100 100 100 100 100 100 100 100 100 100 100 100 100 100 100 100
100 5 19 30 77 100 100 100 100 100 100 76 12 33 55 99 100 100 100 100 100 100 100 100 100 100 100 100 100 100 100 100 100 100 100 100 100 100 100 100 100 100 100
100 96 84 98 100 100 100 100 100 100 79 98 11 9 10 54 98 100 100 100 100 100 100 100 100 100 100 100 100 100 100 100 100 100 100 100 100 100 100 100 100 100 100
99 75 100 100 100 100 100 100 100 100 100 100 99 18 16 22 15 34 48 100 100 100 100 100 94 100 86 100 100 100 100 100 100 100 100 100 100 100 100 100 100 100 100
100 100 100 100 100 100 100 100 100 100 100 100 100 100 98 21 17 2 0 12 95 100 100 100 71 26 68 100 100 100 100 100 100 100 100 100 100 100 100 100 100 100 100
100 100 100 100 100 100 100 100 100 100 100 100 100 100 100 99 12 5 0 1 1 0 21 45 89 100 60 48 26 47 94 100 28 27 35 19 55 63 93 100 98 64 72
100 100 100 100 100 100 100 100 100 100 100 100 100 100 100 100 100 100 95 46 14 1 0 18 40 76 98 100 67 16 0 1 23 81 97 99 86 84 99 97 54 10 87
100 100 100 100 100 100 100 100 100 100 100 100 100 100 100 100 100 100 100 100 100 100 100 97 68 53 91 100 94 52 34 0 1 0 0 0 1 2 9 61 24 10 5
100 100 100 100 100 100 100 100 100 100 100 100 100 100 100 100 100 100 100 100 100 100 100 100 100 100 100 100 91 95 64 59 63 15 5 2 5 5 5 5 57 71 49
100 100 100 100 100 100 100 100 100 100 100 96 100 100 100 100 100 100 100 100 100 100 100 100 100 100 100 100 100 100 100 100 98 70 86 97 92 53 18 40 95 92 100
100 100 100 100 100 100 100 100 100 100 100 100 100 100 100 100 100 100 88 89 77 100 100 100 100 100 100 100 100 100 100 100 100 100 100 100 100 100 100 100 100 99 100
100 100 100 100 100 100 100 100 100 100 100 100 100 100 100 94 92 65 81 100 100 100 100 100 100 100 100 100 100 100 100 100 100 100 100 100 100 100 100 100 100 100 100
100 100 100 100 100 100 100 100 100 100 100 100 100 100 100 100 100 100 100 100 100 100 100 100 100 100 100 100 100 100 100 100 100 100 100 100 100 100 100 100 100 100 100
100 100 100 100 100 100 100 100 100 100 100 100 100 100 100 100 100 100 100 100 100 100 100 100 100 100 100 100 100 100 100 100 100 100 100 100 100 100 100 100 100 100 100
100 99 100 100 100 100 100 100 100 100 100 100 100 100 100 100 100 100 100 100 100 100 100 100 100 100 100 100 100 100 100 100 100 100 100 100 100 100 100 100 100 100 100
100 100 100 100 100 100 100 100 100 100 100 100 100 100 100 100 100 100 100 100 100 100 100 100 100 100 100 100 100 100 100 100 100 100 100 100 100 100 100 100 100 100 100
100 100 100 100 100 100 100 100 100 100 100 100 85 93 100 100 100 100 100 100 100 100 100 100 100 100 100 98 74 83 89 96 93 94 94 99 100 99 100 100 100 100 100
100 100 100 100 100 100 100 100 100 100 100 100 100 100 90 99 100 100 100 100 100 100 100 100 100 100 100 100 99 87 94 99 66 10 15 58 94 99 100 100 100 100 100
100 100 100 100 100 100 100 100 100 99 100 91 94 95 98 96 100 100 100 100 100 100 100 100 86 100 100 100 100 100 100 100 97 97 82 95 92 100 99 100 100 100 100